{"data":{"norad_id":49768,"epoch":"2026-05-25T00:52:01.363296Z","epoch_age_seconds":82114,"freshness":"FRESH","line1":"1 49768U 21115AW  26145.03612689 -.00000669  00000+0 -23973-4 0  9997","line2":"2 49768  53.2139 156.3869 0001170  76.7679 283.3444 15.08839907247201","mean_motion":15.08839907,"eccentricity":0.000117,"inclination_deg":53.2139,"raan_deg":156.3869,"arg_perigee_deg":76.7679,"mean_anomaly_deg":283.3444,"bstar":-2.3973e-5,"rev_number":24720,"period_min":95.437560560227,"perigee_km":538.93428118915,"apogee_km":540.55306526668,"semimajor_km":6917.8806732279,"source":"CELESTRAK","updated_at":"2026-05-25T13:38:16.841003Z"}}